"Time","Temp","Dewpoint","Humidity","Pressure","Direction","Speed","Gust","Precip","PrecipRate"
"00:04:59","69.6","55.1","60","29.82","192","0.4","2.4","0.00","0.00"
"00:09:57","69.3","55","60.3","29.82","192","0.1","1.2","0.00","0.00"
"00:14:59","69.1","55.1","61","29.82","192","0.3","1.2","0.00","0.00"
"00:19:59","68.9","54.9","61","29.82","192","0.1","1.2","0.00","0.00"
"00:24:56","68.6","55","61.7","29.82","192","0","1.2","0.00","0.00"
"00:29:57","68.1","54.8","62.4","29.83","192","0","1.2","0.00","0.00"
"00:34:57","67.9","54.8","63","29.83","192","0","0","0.00","0.00"
"00:39:59","67.8","54.9","63.5","29.83","192","0.2","1.2","0.00","0.00"
"00:44:59","67.7","55","63.9","29.83","192","0.2","2.4","0.00","0.00"
"00:49:56","67.5","55.1","64.7","29.83","192","0.1","1.2","0.00","0.00"
"00:54:56","67.2","55","65","29.83","16","1.1","4.8","0.00","0.00"
"00:59:57","67.3","55.1","65","29.84","17","0.3","2.4","0.00","0.00"
"01:04:58","67.4","55.2","64.8","29.84","5","0.4","6","0.00","0.00"
"01:09:57","67.9","56.2","66.3","29.84","354","2.3","8.4","0.00","0.00"
"01:14:57","68.4","56.8","66.5","29.84","348","1.8","8.1","0.00","0.00"
"01:19:58","68.6","57.1","66.6","29.84","347","1.8","3.6","0.00","0.00"
"01:24:58","68.7","57.7","68","29.84","353","2.8","10.8","0.00","0.00"
"01:29:58","68.9","58.5","69.4","29.86","341","4.6","13.2","0.00","0.00"
"01:34:58","69.1","58.9","70","29.86","346","4.1","12","0.00","0.00"
"01:39:59","69","59.1","70.7","29.86","332","3.2","8.4","0.00","0.00"
"01:44:59","68.9","59.3","71.5","29.86","342","3.9","12","0.00","0.00"
"01:49:59","68.6","59.4","72.7","29.86","346","5.3","15","0.00","0.00"
"01:54:59","68.2","59.4","73.5","29.86","347","7.7","23","0.00","0.00"
"01:59:59","67.8","59.2","74","29.87","333","7.7","15","0.00","0.00"
"02:04:55","67.6","59.2","74.6","29.87","339","6.6","16.8","0.00","0.00"
"02:09:59","67.3","59.1","75","29.87","336","4.6","13.2","0.00","0.00"
"02:14:56","67","58.8","75","29.87","343","2.7","11.5","0.00","0.00"
"02:19:56","66.8","59","76","29.87","357","5.8","19.6","0.00","0.00"
"02:24:56","66.4","58.7","76.2","29.87","356","3.5","8.4","0.00","0.00"
"02:29:56","66.1","58.7","76.9","29.88","303","1.3","3.6","0.00","0.00"
"02:34:57","65.8","58.4","77","29.88","331","2.8","10.8","0.00","0.00"
"02:39:59","65.6","58.2","77","29.88","335","3","7.2","0.00","0.00"
"02:44:56","65.3","57.9","77","29.88","13","1.5","6.9","0.00","0.00"
"02:49:56","65.1","58.1","77.8","29.87","31","0.9","3.6","0.00","0.00"
"02:54:57","65","57.8","77.7","29.87","358","1.1","3.6","0.00","0.00"
"02:59:58","64.7","57.3","77","29.88","355","0.5","3.5","0.00","0.00"
"03:04:57","64.5","57.2","77.4","29.88","355","0.2","2.4","0.00","0.00"
"03:09:56","64.2","57.2","78","29.88","355","0.5","2.4","0.00","0.00"
"03:14:57","64","57","78","29.88","355","1","2.4","0.00","0.00"
"03:19:57","63.9","57.2","78.9","29.88","343","2.1","4.8","0.00","0.00"
"03:24:58","63.8","57.5","80.2","29.88","350","2.2","8.4","0.00","0.00"
"03:29:59","63.5","57.8","81.5","29.88","356","1.3","8.1","0.00","0.00"
"03:34:59","63.1","57.6","82.3","29.87","348","0.3","2.4","0.00","0.00"
"03:39:56","62.6","57.4","83.1","29.87","353","1.4","6","0.00","0.00"
"03:44:57","62","57.2","84.2","29.88","348","3.7","8.4","0.00","0.00"
"03:49:56","61.5","56.9","85","29.88","339","2.4","5.8","0.00","0.00"
"03:54:57","61.2","56.9","85.7","29.88","354","4.1","10.8","0.00","0.00"
"03:59:58","60.8","56.3","85","29.88","356","4.5","12","0.00","0.00"
"04:04:57","60.6","56.3","85.8","29.87","358","2.2","8.1","0.00","0.00"
"04:09:56","60.3","55.9","85.2","29.87","332","2.6","7.2","0.00","0.00"
"04:14:57","60","55.4","84.8","29.87","350","3.9","9.6","0.00","0.00"
"04:19:58","59.7","55.2","85","29.87","347","3","8.1","0.00","0.00"
"04:24:59","59.6","55.1","85","29.87","349","3.3","7.2","0.00","0.00"
"04:29:56","59.4","54.9","85","29.87","348","2.8","7.2","0.00","0.00"
"04:34:59","59.2","54.7","85","29.87","344","1.1","5.8","0.00","0.00"
"04:39:56","59","54.5","85","29.87","344","1.1","4.8","0.00","0.00"
"04:44:57","58.8","54.3","85","29.87","344","1.9","4.8","0.00","0.00"
"04:49:58","58.6","54.1","85","29.87","342","3.4","7.2","0.00","0.00"
"04:54:58","58.4","54","85.4","29.87","352","2.7","6","0.00","0.00"
"04:59:58","58.2","54","86","29.87","344","3.2","6","0.00","0.00"
"05:04:59","58.2","54","86","29.87","337","1.4","3.6","0.00","0.00"
"05:09:58","58.2","54","86","29.87","336","0.4","3.6","0.00","0.00"
"05:14:58","58.2","54","86","29.87","35","1.4","3.6","0.00","0.00"
"05:19:59","58.2","54","86","29.87","61","0.1","1.2","0.00","0.00"
"05:24:55","58.1","53.9","86","29.87","61","0.3","2.4","0.00","0.00"
"05:29:56","58.1","53.9","85.9","29.88","61","0","1.2","0.00","0.00"
"05:34:57","58.1","53.6","85","29.88","347","1.4","6","0.00","0.00"
"05:39:58","58.2","53.7","85","29.88","1","1.6","4.8","0.00","0.00"
"05:44:59","58.1","53.6","85","29.89","356","1.6","6","0.00","0.00"
"05:49:56","58.1","53.6","85","29.89","353","1.3","6","0.00","0.00"
"05:54:56","57.9","53.1","83.8","29.89","354","2.4","8.4","0.00","0.00"
"05:59:56","57.6","52.5","82.8","29.89","29","2","7.2","0.00","0.00"
"06:04:57","57.4","52.2","82.6","29.88","358","3.6","10.8","0.00","0.00"
"06:09:57","57.2","51.9","82.4","29.88","359","3","7.2","0.00","0.00"
"06:14:58","57","51.6","82","29.88","0","3.9","13.2","0.00","0.00"
"06:19:58","56.7","51.5","82.6","29.88","2","3.4","8.1","0.00","0.00"
"06:24:59","56.5","51.4","83","29.88","355","3.4","8.4","0.00","0.00"
"06:29:56","56.2","51","82.7","29.89","353","2.2","8.4","0.00","0.00"
"06:34:56","56","50.9","83.1","29.89","327","2.7","8.4","0.00","0.00"
"06:39:57","55.8","51","84","29.89","347","2.4","8.4","0.00","0.00"
"06:44:58","55.5","51.1","85","29.91","345","2.8","8.4","0.00","0.00"
"06:49:59","55.2","51.1","86","29.91","351","2.9","7.2","0.00","0.00"
"06:54:56","54.8","51","87","29.91","328","1.8","4.8","0.00","0.00"
"06:59:56","54.6","51.1","87.9","29.91","328","0.5","2.4","0.00","0.00"
"07:04:57","54.3","51.1","88.9","29.90","328","0.3","1.2","0.01","0.01"
"07:09:57","54.2","51.2","89.9","29.90","328","0.1","1.2","0.01","0.01"
"07:14:59","54","51.3","90.6","29.91","328","1.5","3.6","0.02","0.02"
"07:19:56","53.8","51.2","91","29.91","337","2.1","4.8","0.02","0.02"
"07:24:58","53.6","51.2","91.8","29.91","346","1.4","4.8","0.02","0.02"
"07:29:59","53.4","51.1","92","29.92","332","1.9","6","0.02","0.02"
"07:34:56","53.3","51","92","29.92","325","3.1","8.4","0.02","0.02"
"07:39:58","53.2","50.9","92","29.92","316","2.7","6","0.02","0.02"
"07:44:59","53.1","50.8","92","29.92","323","1.6","4.8","0.02","0.02"
"07:49:59","53.1","50.8","92","29.92","352","1.9","6","0.02","0.02"
"07:54:59","53","50.8","92.2","29.92","337","2.7","7.2","0.02","0.02"
"07:59:56","52.9","50.7","92.3","29.94","330","3.9","13.2","0.02","0.02"
"08:04:57","52.8","50.5","92","29.94","343","3.5","8.4","0.02","0.02"
"08:09:56","52.8","50.6","92.4","29.94","65","2.3","6","0.04","0.02"
"08:14:57","52.7","50.7","93","29.94","344","2.3","4.8","0.04","0.03"
"08:19:57","52.6","50.6","93","29.93","329","1.8","4.8","0.05","0.02"
"08:24:58","52.5","50.5","93","29.93","329","3.5","8.4","0.08","0.05"
"08:29:58","52.3","50.5","93.7","29.96","345","3.7","10.8","0.12","0.09"
"08:34:58","52.2","50.5","94","29.96","294","3.4","10.4","0.14","0.12"
"08:39:59","52","50.3","94","29.96","283","1.3","4.8","0.16","0.14"
"08:44:56","52","50.3","94","29.98","322","2.4","6","0.17","0.15"
"08:49:56","51.8","50.2","94.2","29.98","345","3","8.4","0.18","0.16"
"08:54:56","51.8","50.3","94.6","29.98","2","3.5","7.2","0.19","0.17"
"08:59:57","51.7","50.1","94.2","29.98","338","3.8","8.4","0.20","0.18"
"09:04:57","51.6","49.9","94","29.98","330","2.7","10.8","0.20","0.18"
"09:09:56","51.5","49.8","94","29.98","343","2","10.4","0.20","0.18"
"09:14:58","51.3","49.6","93.9","29.98","8","2.3","10.8","0.21","0.16"
"09:19:58","50.9","48.8","92.6","29.97","349","1.5","6","0.21","0.17"
"09:24:59","50.7","48.5","92.3","29.97","355","0.8","2.4","0.21","0.16"
"09:29:59","50.6","48.6","92.9","29.97","355","0.4","2.4","0.21","0.13"
"09:34:59","50.5","48.5","92.9","29.96","355","0.6","3.6","0.21","0.09"
"09:39:56","50.4","48.6","93.2","29.96","355","0","0","0.21","0.07"
"09:44:57","50.5","48.8","94","29.97","355","0.7","3.6","0.21","0.05"
"09:49:57","50.4","48.7","94","29.97","355","0.2","2.4","0.21","0.04"
"09:54:58","50.4","48.7","94","29.97","355","0.8","2.4","0.22","0.04"
"09:59:58","50.5","48.9","94.4","29.98","355","1.1","3.6","0.22","0.03"
"10:04:59","50.5","49","94.5","29.98","343","1.4","6","0.22","0.02"
"10:09:58","50.3","48.6","94","29.98","321","1","5.8","0.22","0.02"
"10:14:59","50.4","48.7","94","29.98","321","0.1","2.3","0.23","0.03"
"10:19:56","50.6","48.9","94","29.96","321","0.8","3.6","0.23","0.02"
"10:24:57","50.6","48.9","94","29.96","323","1.1","4.8","0.23","0.02"
"10:29:57","50.7","49","94","29.96","330","2.1","4.8","0.23","0.02"
"10:34:58","50.6","48.9","94","29.96","330","3.4","6","0.23","0.02"
"10:39:59","50.3","48.5","93.6","29.96","309","2.4","4.8","0.23","0.02"
"10:44:56","50.2","48.5","94","29.97","320","2","4.8","0.23","0.02"
"10:49:56","50.1","48.4","94","29.97","333","1.3","3.6","0.23","0.02"
"10:54:57","50","48.3","94","29.97","335","1.9","4.8","0.23","0.02"
"10:59:58","50","48.3","94","29.98","338","1","3.6","0.23","0.01"
"11:04:58","49.9","48.2","94","29.98","338","0.7","2.4","0.23","0.01"
"11:09:57","49.8","48.1","94","29.98","338","1","3.6","0.24","0.02"
"11:14:59","49.7","48","94","29.98","338","0.1","1.2","0.24","0.02"
"11:19:57","49.7","48","94","29.98","338","0.4","2.4","0.24","0.01"
"11:24:58","49.7","48","94","29.98","16","0.2","2.4","0.24","0.01"
"11:29:59","49.7","48","94","29.98","36","0.4","2.4","0.24","0.01"
"11:34:56","49.8","48.1","94","29.96","36","0.3","2.4","0.24","0.01"
"11:39:58","50","48.3","94","29.96","36","0.8","3.6","0.24","0.01"
"11:44:59","50","48.1","93.1","29.96","34","0.7","3.5","0.24","0.01"
"11:49:59","50.1","48.2","93","29.96","30","0","1.2","0.24","0.01"
"11:54:56","50.1","48.4","93.8","29.96","30","0.3","2.4","0.24","0.01"
"11:59:57","50.2","48.5","94","29.97","339","1.1","4.8","0.24","0.01"
"12:04:57","50.3","48.6","94","29.97","342","2.6","4.8","0.24","0.01"
"12:09:56","50.3","48.6","94","29.97","341","2.5","6","0.24","0.01"
"12:14:57","50.3","48.6","94","29.99","346","3.6","7.2","0.24","0.00"
"12:19:58","50","48.2","93.4","29.99","345","3.9","8.4","0.24","0.00"
"12:24:58","49.8","47.9","93.1","29.99","338","3.2","12","0.24","0.00"
"12:29:58","49.5","47.6","93","29.99","347","4","7.2","0.24","0.00"
"12:34:59","49.2","47.3","93","29.99","347","3.4","7.2","0.24","0.00"
"12:39:56","49.1","47.2","93","29.99","347","3.7","8.4","0.24","0.00"
"12:44:56","49","47.2","93.2","29.99","357","3.5","10.8","0.24","0.00"
"12:49:56","49","47.1","93","29.98","341","2.7","10.4","0.24","0.00"
"12:54:57","49.2","47.3","93.4","29.98","348","1.7","4.6","0.24","0.00"
"12:59:57","49.3","47.4","93","29.98","334","1.6","7.2","0.24","0.00"
"13:04:58","49.4","47.5","93","29.98","350","2.8","7.2","0.24","0.00"
"13:09:57","49.4","47.2","92.2","29.98","352","3.3","8.4","0.24","0.00"
"13:14:58","49.2","47","92","29.99","0","1.6","6.9","0.24","0.00"
"13:19:58","49","46.8","92","29.99","349","2.3","7.2","0.24","0.00"
"13:24:59","48.8","46.6","92","29.99","346","1.6","7.2","0.24","0.00"
"13:29:56","48.7","46.5","92","29.99","77","1.1","5.8","0.24","0.00"
"13:34:56","48.6","46.4","92","29.99","357","1.8","8.4","0.24","0.00"
"13:39:57","48.4","46.2","92","29.99","351","2.9","6","0.24","0.00"
"13:44:57","48.3","46.1","92","29.99","350","2.8","8.4","0.24","0.00"
"13:49:57","48.2","46","92.1","29.98","13","1.5","3.6","0.24","0.00"
"13:54:57","48.1","46.2","93","29.98","324","1.8","8.4","0.24","0.00"
"13:59:57","48","46.1","93","30.00","39","2","5.8","0.24","0.00"
"14:04:57","48","46.1","93","30.00","348","3.5","7.2","0.24","0.00"
"14:09:56","48","46","92.8","30.00","8","2.2","6.9","0.24","0.00"
"14:14:57","48","46.1","93","30.00","347","1","4.8","0.24","0.00"
"14:19:57","48.1","46.1","92.6","30.00","343","0.5","6","0.24","0.00"
"14:24:58","48.2","46","92.2","30.00","342","2.8","6","0.24","0.00"
"14:29:58","48.2","46.2","92.6","30.00","338","0.6","3.6","0.24","0.00"
"14:34:59","48.5","46.6","93.1","29.99","338","0.1","2.4","0.24","0.00"
"14:39:56","48.9","47.2","93.8","29.99","338","0.9","3.6","0.24","0.00"
"14:44:56","49","46.9","92.5","29.99","17","1.4","6","0.24","0.00"
"14:49:58","48.8","46.6","92","29.99","349","2.2","7.2","0.24","0.00"
"14:54:56","48.8","46.8","92.5","29.99","5","1","4.6","0.24","0.00"
"14:59:56","48.8","46.9","93","29.99","343","1.5","4.8","0.24","0.00"
"15:04:56","48.8","46.9","93","29.99","355","2.7","6","0.24","0.00"
"15:09:59","48.6","46.7","93","29.99","350","2.6","7.2","0.24","0.00"
"15:14:56","48.5","46.8","93.7","29.99","348","2","6","0.24","0.00"
"15:19:56","48.4","46.8","94","29.99","20","1","3.6","0.24","0.00"
"15:24:57","48.3","46.7","94","29.99","41","0.5","2.4","0.24","0.00"
"15:29:58","48.3","46.8","94.3","29.99","33","0.2","3.6","0.24","0.00"
"15:34:58","48.3","46.9","95","29.98","8","1.1","4.8","0.24","0.00"
"15:39:59","48.3","46.9","95","29.98","348","2.4","7.2","0.24","0.00"
"15:44:59","48.1","46.7","95","29.99","334","2.6","8.4","0.24","0.00"
"15:49:56","47.9","46.5","95","29.99","345","2.1","6","0.24","0.00"
"15:54:57","47.8","46.4","95","29.99","333","0.7","3.6","0.24","0.00"
"15:59:57","47.8","46.4","95","29.99","343","1.5","4.8","0.24","0.00"
"16:04:57","47.7","46.3","95","29.99","359","0.5","2.4","0.24","0.00"
"16:09:56","47.7","46.3","95","29.99","337","1.1","3.6","0.24","0.00"
"16:14:57","47.7","46.3","95","29.99","339","0.7","3.5","0.24","0.00"
"16:19:58","47.7","46.3","95","29.98","347","0","1.2","0.25","0.01"
"16:24:59","47.7","46.3","95.2","29.98","350","0","0","0.25","0.01"
"16:29:59","47.7","46.6","95.8","29.98","355","0.5","2.4","0.25","0.01"
"16:34:59","47.7","46.5","95.7","29.97","49","0.9","3.6","0.25","0.01"
"16:39:56","47.7","46.5","95.7","29.97","76","0.5","2.4","0.25","0.01"
"16:44:57","47.7","46.5","95.6","29.97","67","0.3","2.4","0.25","0.01"
"16:49:57","47.7","46.5","95.6","29.97","62","0.2","2.4","0.25","0.01"
"16:54:57","47.7","46.6","96","29.97","57","0.1","2.3","0.25","0.01"
"16:59:57","47.8","46.7","96","29.98","57","0.3","2.4","0.26","0.02"
"17:04:58","47.8","46.7","96","29.98","2","3","7.2","0.26","0.02"
"17:09:57","47.9","46.8","96","29.98","336","1.7","6","0.26","0.02"
"17:14:57","47.9","46.8","96","30.00","341","0.8","4.8","0.26","0.02"
"17:19:57","47.8","46.5","95.1","30.00","346","0.6","2.4","0.27","0.03"
"17:24:57","47.9","46.5","95.3","30.00","12","1.2","3.6","0.27","0.02"
"17:29:58","47.8","46.4","95","30.00","94","2","4.8","0.27","0.02"
"17:34:58","47.8","46.4","95","29.97","96","1","2.4","0.27","0.02"
"17:39:58","47.9","46.5","95","29.97","359","3.5","7.2","0.28","0.03"
"17:44:58","48","46.6","95","29.98","1","1.6","6.9","0.28","0.03"
"17:49:58","47.9","46.8","95.8","29.98","360","0.5","2.4","0.28","0.03"
"17:54:59","47.9","46.8","96","29.98","360","0.1","3.6","0.28","0.03"
"17:59:56","47.9","46.6","95.3","30.01","360","1.1","3.6","0.29","0.03"
"18:04:57","47.8","46.5","95","30.01","360","0.3","3.6","0.29","0.03"
"18:09:56","47.8","46.4","95","30.01","3","0.2","1.2","0.29","0.03"
"18:14:58","47.8","46.4","95","30.02","5","0.8","2.4","0.30","0.04"
"18:19:58","47.8","46.4","95","30.02","5","1.1","3.6","0.30","0.04"
"18:24:59","47.8","46.4","95","30.02","5","0.6","3.6","0.30","0.03"
"18:29:59","47.7","46.3","95","30.02","357","1.2","4.8","0.31","0.04"
"18:34:59","47.6","46.2","95","30.02","355","1.6","4.8","0.32","0.04"
"18:39:58","47.5","46.1","95","30.02","5","0.6","3.6","0.32","0.05"
"18:44:56","47.4","46","95","30.02","72","0.6","2.4","0.33","0.04"
"18:49:57","47.2","45.8","95","30.01","343","1.8","4.8","0.34","0.06"
"18:54:57","47.1","45.7","95","30.01","342","1.3","6","0.34","0.06"
"18:59:58","46.9","45.5","95","30.01","333","1.1","3.6","0.35","0.06"
"19:04:59","46.8","45.4","95","30.00","335","0.5","2.3","0.35","0.06"
"19:09:59","46.7","45.3","95","30.00","335","0.6","3.6","0.36","0.07"
"19:14:57","46.7","45.3","95.2","30.00","334","0.4","3.5","0.36","0.07"
"19:19:58","46.6","45.5","96","30.00","334","0.3","1.2","0.37","0.07"
"19:24:57","46.5","45.3","95.5","30.00","334","0.3","2.4","0.37","0.07"
"19:29:58","46.5","45.2","95.5","30.00","19","0.4","3.6","0.38","0.07"
"19:34:59","46.4","45.3","95.9","30.00","14","0.7","4.8","0.38","0.07"
"19:39:57","46.3","45.1","95.6","30.00","41","2.1","6","0.38","0.06"
"19:44:59","45.9","44.3","94.3","30.01","63","1.4","4.8","0.38","0.06"
"19:49:56","45.6","43.7","93.1","30.01","345","2","4.8","0.38","0.05"
"19:54:58","45.4","43.5","93","30.01","9","1.5","4.8","0.38","0.04"
"19:59:58","45.1","43","92.2","30.02","13","1.1","3.6","0.39","0.05"
"20:04:59","44.9","42.3","90.9","30.02","49","0.7","4.8","0.39","0.04"
"20:09:58","44.7","42.1","90.8","30.02","15","1.5","4.6","0.40","0.05"
"20:14:59","44.5","42.2","91.6","30.06","311","1.1","3.6","0.42","0.06"
"20:19:56","44.1","41.7","91.4","30.06","326","1.6","4.8","0.44","0.07"
"20:24:57","43.6","41","90.5","30.06","358","2.3","6","0.46","0.08"
"20:29:57","43.2","40.7","91","30.06","347","1.2","4.8","0.47","0.09"
"20:34:58","42.8","40.4","91.3","30.06","6","1.8","6","0.48","0.10"
"20:39:56","42.5","40.3","92","30.06","35","1.8","5.8","0.51","0.12"
"20:44:57","42.3","40.3","92.6","30.06","38","0.5","2.4","0.52","0.14"
"20:49:58","42.2","40.3","93","30.04","359","0.6","2.4","0.53","0.15"
"20:54:58","42.2","40.4","93.4","30.04","358","0.2","3.6","0.53","0.15"
"20:59:59","42.2","40.6","94","30.05","13","1.1","3.5","0.54","0.16"
"21:04:56","42.2","40.6","94","30.05","13","0.4","2.4","0.54","0.15"
"21:09:59","42.3","40.7","94","30.05","13","0.2","2.4","0.54","0.15"
"21:14:56","42.3","40.7","94","30.06","13","1.2","2.4","0.54","0.14"
"21:19:56","42.4","40.8","94","30.06","13","0.8","2.4","0.54","0.12"
"21:24:58","42.4","40.8","94","30.06","13","0.1","2.3","0.54","0.10"
"21:29:59","42.5","41.1","94.6","30.06","13","0.7","2.4","0.54","0.08"
"21:34:56","42.5","41.2","95","30.05","13","0.2","1.2","0.54","0.07"
"21:39:57","42.5","41.2","95","30.05","13","0.1","1.2","0.54","0.06"
"21:44:58","42.6","41.3","95","30.06","25","0.3","2.4","0.54","0.03"
"21:49:59","42.7","41.4","95","30.06","77","1.2","3.6","0.54","0.02"
"21:54:56","42.8","41.5","95","30.06","78","0.9","2.4","0.54","0.01"
"21:59:57","42.9","41.6","95","30.06","78","0.9","3.6","0.54","0.01"
"22:04:58","42.9","41.6","95","30.06","78","0","1.2","0.54","0.00"
"22:09:57","42.9","41.5","94.6","30.06","78","0","0","0.54","0.00"
"22:14:59","43","41.5","94.3","30.08","78","0","0","0.54","0.00"
"22:19:55","43","41.4","94","30.08","78","0","0","0.54","0.00"
"22:24:57","43","41.4","94","30.08","78","0","0","0.54","0.00"
"22:29:57","43","41.4","94","30.08","78","0","0","0.55","0.01"
"22:34:58","42.9","41.3","93.8","30.07","78","0","0","0.55","0.01"
"22:39:59","42.9","41","93","30.07","78","0","0","0.55","0.01"
"22:44:56","42.9","41","93","30.07","78","0.3","3.6","0.55","0.01"
"22:49:56","42.9","41.1","93.3","30.05","78","0.8","3.5","0.56","0.02"
"22:54:57","42.8","41.2","94","30.05","78","1.6","3.6","0.56","0.02"
"22:59:57","42.7","41.1","94","30.05","80","1.4","3.6","0.56","0.02"
"23:04:57","42.8","41.2","94","30.05","119","2","3.6","0.56","0.02"
"23:09:56","42.8","41.2","94","30.05","185","1.5","6","0.56","0.02"
"23:14:57","42.7","41.1","94.2","30.05","188","0.8","3.6","0.56","0.02"
"23:19:58","42.6","41","94","30.05","188","0.4","2.4","0.56","0.02"
"23:24:59","42.6","41","94","30.05","182","0.4","2.4","0.56","0.02"
"23:29:59","42.6","41","94","30.05","182","0.6","2.4","0.56","0.02"
"23:34:59","42.6","41","94","30.04","166","0.7","3.6","0.56","0.01"
"23:39:56","42.6","41","94","30.04","160","0.3","1.2","0.56","0.01"
"23:44:57","42.7","41.1","94","30.04","160","0","1.2","0.56","0.01"
"23:49:58","42.7","41.1","94.2","30.04","160","0.2","1.2","0.56","0.01"
"23:54:59","42.7","41.4","95","30.04","160","0","0","0.56","0.00"
